Weather History for Montego Bay, Jamaica

Change the Weather History Date:

Wednesday, December 26, 2012

  Actual Average Record
Temperature  
Mean Temperature 79 °F -  
Max Temperature 86 °F 81 °F 87 °F (1997)
Min Temperature 72 °F 73 °F 69 °F (2006)
Cooling Degree Days 14    
Growing Degree Days 29 (Base 50)    
Moisture  
Dew Point 73 °F    
Average Humidity 76    
Maximum Humidity 89    
Minimum Humidity 61    
Precipitation  
Precipitation 0.00 in - - ()
Sea Level Pressure  
Sea Level Pressure 29.91 in    
Wind  
Wind Speed 8 mph ()    
Max Wind Speed 21 mph    
Max Gust Speed -    
Visibility 7.8 miles    
Events      
Averages and records for this station are not official NWS values.
T = Trace of Precipitation, MM = Missing Value Source: Averaged Metar Reports

Daily Weather History Graph

Daily Weather History Graph

Search for Another Location

Airport:

Trip Planner

Search our weather history database for the weather conditions in past years. The results will help you decide how hot, cold, wet, or windy it might be!

Date:

Astronomy

Dec. 26, 2012 Rise Set
Actual Time 6:41 AM EST 5:43 PM EST
Civil Twilight 6:17 AM EST 6:07 PM EST
Nautical Twilight 5:50 AM EST 6:34 PM EST
Astronomical Twilight 5:23 AM EST 7:01 PM EST
Moon 4:31 PM EST (12/26) 5:07 AM EST (12/26)
Length of Visible Light 11h 49m
Length of Day
11h 01m
Waxing Gibbous, 97% of the Moon is Illuminated
Dec 26
Waxing Gibbous
Dec 28
Full
Jan 4
Last Quarter
Jan 11
New
Jan 18
First Quarter

Hourly Weather History & Observations

Time (EST) Temp. Heat Index Dew Point Humidity Pressure Visibility Wind Dir Wind Speed Gust Speed Precip Events Conditions
12:00 AM 77.0 °F - 71.6 °F 83% 29.92 in 6.2 mi East 1.2 mph - N/A   Partly Cloudy
1:00 AM 77 °F - 70 °F 74% 29.92 in 12 mi SE 4.6 mph - -   Scattered Clouds
1:00 AM 77.0 °F - 69.8 °F 78% 29.92 in 6.2 mi SE 4.6 mph - N/A   Partly Cloudy
2:00 AM 75.2 °F - 69.8 °F 83% 29.89 in 6.2 mi SE 8.1 mph - N/A   Partly Cloudy
3:00 AM 75.2 °F - 69.8 °F 83% 29.86 in 6.2 mi SE 4.6 mph - N/A   Partly Cloudy
4:00 AM 75 °F - 69 °F 77% 29.89 in 12 mi SSE 5.8 mph - -   Scattered Clouds
4:00 AM 75.2 °F - 69.8 °F 83% 29.89 in 6.2 mi SSE 5.8 mph - N/A   Partly Cloudy
5:00 AM 77.0 °F - 69.8 °F 78% 29.89 in 6.2 mi ESE 8.1 mph - N/A   Partly Cloudy
6:00 AM 73.4 °F - 68.0 °F 83% 29.89 in 6.2 mi SSE 3.5 mph - N/A   Partly Cloudy
7:00 AM 76 °F - 69 °F 72% 29.92 in 12 mi East 3.5 mph - -   Scattered Clouds
7:00 AM 75.2 °F - 68.0 °F 78% 29.92 in 6.2 mi East 3.5 mph - N/A   Partly Cloudy
8:00 AM 80.6 °F 84.6 °F 71.6 °F 74% 29.92 in 6.2 mi SSW 2.3 mph - N/A   Partly Cloudy
9:00 AM 82.4 °F 87.2 °F 71.6 °F 70% 29.95 in 6.2 mi NNW 4.6 mph - N/A   Partly Cloudy
10:00 AM 84 °F - 73 °F 61% 29.94 in 16 mi East 11.5 mph - -   Scattered Clouds
10:00 AM 84.2 °F 90.9 °F 73.4 °F 70% 29.92 in 6.2 mi East 11.5 mph - N/A   Partly Cloudy
11:00 AM 84.2 °F 92.3 °F 75.2 °F 74% 29.92 in 6.2 mi NE 11.5 mph - N/A   Scattered Clouds
12:00 PM 86.0 °F 95.1 °F 75.2 °F 70% 29.92 in 6.2 mi ENE 16.1 mph - N/A   Partly Cloudy
1:00 PM 85 °F - 76 °F 69% 29.90 in 16 mi ENE 20.7 mph - -   Partly Cloudy
1:00 PM 86.0 °F 96.9 °F 77.0 °F 74% 29.89 in 6.2 mi ENE 20.7 mph - N/A   Partly Cloudy
2:00 PM 86.0 °F 95.1 °F 75.2 °F 70% 29.86 in 6.2 mi East 18.4 mph - N/A   Scattered Clouds
3:00 PM 86.0 °F 96.9 °F 77.0 °F 74% 29.86 in 6.2 mi East 17.3 mph - N/A   Scattered Clouds
4:00 PM 86 °F - 76 °F 67% 29.86 in 12 mi East 17.3 mph - -   Mostly Cloudy
4:00 PM 86.0 °F 96.9 °F 77.0 °F 74% 29.86 in 6.2 mi East 17.3 mph - N/A   Mostly Cloudy
5:00 PM 86.0 °F 96.9 °F 77.0 °F 74% 29.86 in 6.2 mi East 16.1 mph - N/A   Scattered Clouds
6:00 PM 86.0 °F 95.1 °F 75.2 °F 70% - 6.2 mi East 18.4 mph - N/A   Scattered Clouds
7:00 PM 86.0 °F 96.9 °F 77.0 °F 74% 29.89 in 6.2 mi East 15.0 mph - N/A   Scattered Clouds
8:00 PM 84.2 °F 92.3 °F 75.2 °F 74% 29.92 in 6.2 mi East 15.0 mph - N/A   Scattered Clouds
9:00 PM 84.2 °F 92.3 °F 75.2 °F 74% 29.95 in 6.2 mi East 16.1 mph - N/A   Scattered Clouds
10:00 PM 77 °F - 73 °F 85% 29.96 in 12 mi ENE 6.9 mph - -   Scattered Clouds
10:00 PM 77.0 °F - 73.4 °F 89% 29.95 in 6.2 mi ENE 6.9 mph - N/A   Scattered Clouds
11:00 PM 77.0 °F - 73.4 °F 89% 29.95 in 6.2 mi East 5.8 mph - N/A   Scattered Clouds